User: anonymous   Login
Location: Unspecified
(0.0000°N, 0.0000°E)
Time: 19:23:55
(UTC+00:00)
Language:

SBIRS GEO 1 (USA 230) - Orbit

View from above orbital plane
View from above orbital plane
View from above satellite
View from above satellite

Ground track
Ground track

The orbit data is extracted from the following two-line orbital elements,

1 37481U 11019A   21136.70335291  .00000000  00000-0  00000-0 0  9998
2 37481   1.8258   0.4675 0002000  61.5833 131.9824  1.00272277 36778
Epoch (UTC): 16 May 2021 16:52:49
Eccentricity: 0.0002000
inclination: 1.8258°
perigee height: 35777 km
apogee height: 35794 km
right ascension of ascending node: 0.4675°
argument of perigee: 61.5833°
revolutions per day: 1.00272277
mean anomaly at epoch: 131.9824°
orbit number at epoch: 3677

The dashed part of the orbit path shows where the satellite is in the earth's shadow,  

DLR